Home > Weather > Murmansk > Past weeks

Flag for Russia Weather for the Past 2 Weeks in Murmansk, Russia

Now
28 °F

Scattered clouds.


Feels Like: 28 °F
Forecast: 18 / 26 °F
Wind: 1 mph from North

Location: Murmansk Airport

Current Time: Feb 13, 2016 at 1:21:50 PM

Latest Report: Feb 13, 2016 at 1:00 PM


Visibility: N/A

Pressure: 29.71 "Hg

Humidity: 93%

Dew point: 27 °F

Location of MurmanskLocation

Historic Weather in Murmansk — Graph

°F

Murmansk Temperature Yesterday

Maximum temperature yesterday: 34 °F (at 12:00 AM)
Minimum temperature yesterday: 30 °F (at 11:00 PM)
Average temperature yesterday: 32 °F

High & Low Weather Summary for the Past Weeks

 TemperatureHumidityPressure
High37 °F (Feb 8, 6:00 PM)93% (Jan 29, 12:00 PM)29.71 "Hg (Jan 29, 12:00 PM)
Low-9 °F (Feb 6, 11:00 PM)65% (Feb 9, 4:00 AM)28.65 "Hg (Jan 31, 7:00 AM)
Average22 °F87%29.17 "Hg
* Reported Jan 29 12:00 Noon — Feb 13 12:00 Noon, Murmansk, Weather by CustomWeather, © 2016

Note: Actual official high and low records may vary slightly from our data, if they occured in-between our weather recording intervals... More about our weather records

Advertising

Murmansk Weather History for the Previous 24 Hours

 ConditionsComfort  
Time TempWeatherWind HumidityBarometerVisibility
12:00 PM
Sat, Feb 13
28 °FScattered clouds.1 mph86%29.68 "HgN/A
11:30 AM27 °FScattered clouds.1 mph93%29.68 "HgN/A
11:00 AM27 °FPartly sunny.1 mph93%29.68 "HgN/A
10:30 AM27 °FSnow flurries. Partly sunny.1 mph93%29.68 "Hg6 mi
10:00 AM27 °FSnow flurries. Passing clouds.1 mph93%29.68 "Hg5 mi
9:30 AM27 °FSnow flurries. Passing clouds.1 mph93%29.65 "Hg4 mi
9:00 AM27 °FSnow flurries. Passing clouds.1 mph93%29.65 "Hg3 mi
8:30 AM28 °FSnow flurries. Passing clouds.No wind86%29.65 "Hg2 mi
8:00 AM28 °FSnow flurries. Passing clouds.No wind93%29.65 "Hg2 mi
7:00 AM28 °FSnow flurries. Passing clouds.No wind93%29.65 "Hg2 mi
6:30 AM27 °FSnow flurries. Passing clouds.No wind93%29.65 "Hg2 mi
6:00 AM28 °FSnow flurries. Passing clouds.No wind93%29.68 "Hg2 mi
5:00 AM28 °FSnow flurries. Passing clouds.No wind93%29.68 "Hg4 mi
4:30 AM28 °FSnow flurries. Passing clouds.1 mph93%29.68 "Hg2 mi
4:00 AM28 °FSnow flurries. Passing clouds.1 mph93%29.68 "Hg2 mi
3:00 AM28 °FSnow flurries. Passing clouds.3 mph93%29.65 "Hg6 mi
2:30 AM28 °FSnow flurries. Passing clouds.3 mph93%29.65 "Hg4 mi
2:00 AM30 °FSnow showers. Ice fog.3 mph93%29.65 "Hg1 mi
1:00 AM30 °FChilly.1 mph93%29.68 "Hg1 mi
12:30 AM30 °FChilly.1 mph93%29.68 "Hg3 mi
12:00 AM30 °FSnow showers. Passing clouds.1 mph93%29.68 "Hg1 mi
11:30 PM
Fri, Feb 12
30 °FChilly.1 mph93%29.68 "Hg1 mi
11:00 PM30 °FChilly.3 mph93%29.68 "Hg1 mi
10:00 PM32 °FChilly.3 mph93%29.68 "Hg1 mi
9:30 PM32 °FSnow flurries. Passing clouds.3 mph93%29.68 "Hg1 mi
9:00 PM32 °FSnow flurries. Passing clouds.6 mph93%29.68 "Hg2 mi
8:30 PM32 °FSnow flurries. Passing clouds.6 mph93%29.68 "Hg3 mi
8:00 PM32 °FSnow flurries. Passing clouds.6 mph93%29.68 "Hg1 mi
7:30 PM32 °FSnow flurries. Passing clouds.6 mph93%29.68 "Hg2 mi
7:00 PM32 °FSnow showers. Dense fog.6 mph93%29.68 "Hg1 mi
6:30 PM32 °FSnow flurries. Dense fog.6 mph93%29.68 "Hg1 mi
6:00 PM32 °FSnow showers. Dense fog.6 mph93%29.68 "Hg1 mi
5:30 PM32 °FSnow showers. Dense fog.6 mph93%29.68 "Hg1 mi
5:00 PM32 °FSnow showers. Dense fog.3 mph93%29.68 "Hg1 mi
4:30 PM32 °FChilly.1 mph93%29.68 "Hg1 mi
4:00 PM32 °FSnow showers. Dense fog.3 mph93%29.68 "Hg1 mi
3:30 PM32 °FChilly.3 mph93%29.68 "Hg1 mi
3:00 PM32 °FChilly.3 mph93%29.68 "Hg1 mi
2:30 PM32 °FChilly.3 mph93%29.68 "Hg1 mi
2:00 PM32 °FSnow flurries. Partly sunny.3 mph93%29.68 "Hg3 mi
1:30 PM32 °FSnow flurries. Partly sunny.3 mph93%29.65 "Hg2 mi
1:00 PM32 °FSnow flurries. Partly sunny.3 mph93%29.65 "Hg1 mi
Weather by CustomWeather, © 2016

See weather overviewHow to use our weather pages